User: anonymous   Login
Location: Unspecified
(0.0000°N, 0.0000°E)
Time: 13:29:44
(UTC+02:00)
Language:

ASC 2 Rocket - Orbit

View from above orbital plane
View from above orbital plane
View from above satellite
View from above satellite

Ground track
Ground track

The orbit data is extracted from the following two-line orbital elements,

1 21228U 91028B   17296.82559241  .00000196  00000-0  19222-4 0  9992
2 21228  23.9955 198.1536 1142821 337.4951  60.9596 12.53331175213938
Epoch (UTC): 23 October 2017 19:48:51
Eccentricity: 0.1142821
inclination: 23.9955°
perigee height: 556 km
apogee height: 2345 km
right ascension of ascending node: 198.1536°
argument of perigee: 337.4951°
revolutions per day: 12.53331175
mean anomaly at epoch: 60.9596°
orbit number at epoch: 21393

The dashed part of the orbit path shows where the satellite is in the earth's shadow,  

DLR